Weather History for KBXA - January, 2013

Change the Weather History Date:

Friday, January 4, 2013

  Actual Average Record
Temperature  
Mean Temperature 44 °F -  
Max Temperature 56 °F 60 °F 65 °F (2015)
Min Temperature 31 °F 38 °F 24 °F (2014)
Degree Days  
Heating Degree Days 22    
Moisture  
Dew Point 30 °F    
Average Humidity 64    
Maximum Humidity 100    
Minimum Humidity 28    
Precipitation  
Precipitation 0.00 in - - ()
Sea Level Pressure  
Sea Level Pressure 30.41 in    
Wind  
Wind Speed 4 mph (NNE)    
Max Wind Speed 9 mph    
Max Gust Speed 10 mph    
Visibility 10 miles    
Events      
Averages and records for this station are not official NWS values.
T = Trace of Precipitation, MM = Missing Value Source: NWS Daily Summary

Daily Weather History Graph

Daily Weather History Graph

Search for Another Location

Airport or City:

Trip Planner

Search our weather history database for the weather conditions in past years. The results will help you decide how hot, cold, wet, or windy it might be!

Date:

Astronomy

Jan. 04, 2013 Rise Set
Actual Time 6:57 AM CST 5:11 PM CST
Civil Twilight 6:31 AM CST 5:37 PM CST
Nautical Twilight 6:01 AM CST 6:07 PM CST
Astronomical Twilight 5:32 AM CST 6:37 PM CST
Moon No Moon Rise 11:11 AM CST
Length of Visible Light 11h 06m
Length of Day
10h 13m
Waning Gibbous, 55% of the Moon is Illuminated
Jan 4
Waning Gibbous
Jan 4
Last Quarter
Jan 11
New
Jan 18
First Quarter
Jan 26
Full

Hourly Weather History & Observations

Time (CST) Temp. Windchill Dew Point Humidity Pressure Visibility Wind Dir Wind Speed Gust Speed Precip Events Conditions
12:15 AM 32.4 °F - 27.3 °F 82% 30.41 in 10.0 mi Calm Calm - N/A   Unknown
12:35 AM 32.0 °F - 27.5 °F 83% 30.41 in 10.0 mi Calm Calm - N/A   Unknown
12:55 AM 32.4 °F - 27.1 °F 81% 30.41 in 10.0 mi Calm Calm - N/A   Unknown
1:15 AM 31.8 °F 28.5 °F 27.5 °F 84% 30.41 in 10.0 mi North 3.5 mph - N/A   Unknown
1:35 AM 32.0 °F 28.7 °F 32.0 °F 100% 30.41 in 10.0 mi North 3.5 mph - N/A   Unknown
1:55 AM 31.8 °F 27.3 °F 28.6 °F 88% 30.41 in 10.0 mi North 4.6 mph - N/A   Unknown
2:15 AM 31.8 °F 28.5 °F 31.1 °F 97% 30.40 in 10.0 mi NNE 3.5 mph - N/A   Unknown
2:35 AM 32.5 °F 29.3 °F 27.5 °F 82% 30.39 in 10.0 mi NE 3.5 mph - N/A   Unknown
2:55 AM 32.5 °F 28.1 °F 27.7 °F 82% 30.39 in 10.0 mi NNE 4.6 mph - N/A   Unknown
3:15 AM 32.9 °F 28.5 °F 27.9 °F 82% 30.39 in 10.0 mi NE 4.6 mph - N/A   Unknown
5:55 AM 32.0 °F 27.5 °F 28.0 °F 85% 30.41 in 10.0 mi NNE 4.6 mph - N/A   Unknown
6:15 AM 32.2 °F 28.9 °F 27.7 °F 83% 30.42 in 10.0 mi NNE 3.5 mph - N/A   Unknown
6:35 AM 32.5 °F 27.1 °F 27.5 °F 82% 30.42 in 10.0 mi NNE 5.8 mph - N/A   Unknown
6:55 AM 32.4 °F 27.9 °F 27.5 °F 82% 30.43 in 10.0 mi NNE 4.6 mph - N/A   Unknown
7:15 AM 32.2 °F 28.9 °F 27.5 °F 83% 30.44 in 10.0 mi NNE 3.5 mph - N/A   Unknown
7:35 AM 32.9 °F 28.5 °F 27.9 °F 82% 30.45 in 10.0 mi NE 4.6 mph - N/A   Unknown
7:55 AM 34.2 °F - 28.2 °F 79% 30.46 in 10.0 mi Calm Calm - N/A   Unknown
8:15 AM 35.4 °F 31.5 °F 28.8 °F 77% 30.48 in 10.0 mi North 4.6 mph - N/A   Unknown
8:35 AM 37.2 °F 32.6 °F 28.9 °F 72% 30.48 in 10.0 mi NNE 5.8 mph - N/A   Unknown
8:55 AM 39.6 °F 35.4 °F 28.4 °F 64% 30.48 in 10.0 mi NE 5.8 mph - N/A   Unknown
9:15 AM 41.2 °F 36.0 °F 28.0 °F 60% 30.48 in 10.0 mi NE 8.1 mph - N/A   Unknown
9:35 AM 43.3 °F 39.2 °F 28.4 °F 56% 30.47 in 10.0 mi ENE 6.9 mph - N/A   Unknown
9:55 AM 45.1 °F 41.4 °F 26.4 °F 48% 30.48 in 10.0 mi NE 6.9 mph - N/A   Unknown
10:15 AM 47.3 °F - 27.7 °F 47% 30.47 in 10.0 mi NE 8.1 mph - N/A   Unknown
10:35 AM 48.2 °F - 26.6 °F 43% 30.47 in 10.0 mi NE 8.1 mph - N/A   Unknown
10:55 AM 49.6 °F - 27.7 °F 43% 30.45 in 10.0 mi NE 9.2 mph - N/A   Unknown
11:15 AM 50.2 °F - 27.7 °F 42% 30.44 in 10.0 mi NNE 6.9 mph - N/A   Unknown
11:35 AM 51.8 °F - 27.1 °F 39% 30.43 in 10.0 mi NNE 6.9 mph 10.4 mph N/A   Unknown
11:55 AM 52.2 °F - 23.7 °F 33% 30.42 in 10.0 mi ENE 5.8 mph - N/A   Unknown
12:15 PM 53.2 °F - 24.1 °F 32% 30.42 in 10.0 mi NNE 6.9 mph - N/A   Unknown
12:55 PM 54.9 °F - 24.4 °F 31% 30.39 in 10.0 mi NE 5.8 mph - N/A   Unknown
1:15 PM 55.6 °F - 25.5 °F 31% 30.38 in 10.0 mi North 9.2 mph - N/A   Unknown
1:35 PM 55.8 °F - 26.1 °F 32% 30.37 in 10.0 mi North 8.1 mph - N/A   Unknown
1:55 PM 56.1 °F - 24.6 °F 30% 30.36 in 10.0 mi NNW 5.8 mph - N/A   Unknown
2:15 PM 56.7 °F - 25.3 °F 30% 30.36 in 10.0 mi NNE 8.1 mph - N/A   Unknown
2:35 PM 56.5 °F - 24.1 °F 29% 30.37 in 10.0 mi NNE 8.1 mph - N/A   Unknown
2:55 PM 56.3 °F - 24.6 °F 29% 30.36 in 10.0 mi North 6.9 mph - N/A   Unknown
3:15 PM 56.5 °F - 24.3 °F 29% 30.36 in 10.0 mi NNE 6.9 mph - N/A   Unknown
3:35 PM 56.3 °F - 23.7 °F 28% 30.35 in 10.0 mi NNE 9.2 mph - N/A   Unknown
3:55 PM 55.6 °F - 24.4 °F 30% 30.36 in 10.0 mi North 9.2 mph - N/A   Unknown
4:15 PM 55.6 °F - 24.4 °F 30% 30.37 in 10.0 mi NNE 4.6 mph - N/A   Unknown
4:35 PM 54.3 °F - 26.2 °F 34% 30.37 in 10.0 mi NNE 5.8 mph - N/A   Unknown
4:55 PM 52.9 °F - 29.3 °F 40% 30.37 in 10.0 mi Calm Calm - N/A   Unknown
5:15 PM 46.9 °F - 37.9 °F 71% 30.38 in 10.0 mi Calm Calm - N/A   Unknown
5:35 PM 46.0 °F - 38.5 °F 75% 30.39 in 10.0 mi Calm Calm - N/A   Unknown
5:55 PM 45.3 °F - 38.7 °F 78% 30.39 in 10.0 mi Calm Calm - N/A   Unknown
6:15 PM 45.0 °F - 38.3 °F 77% 30.40 in 10.0 mi Calm Calm - N/A   Unknown
6:55 PM 42.8 °F - 40.1 °F 90% 30.41 in 10.0 mi Calm Calm - N/A   Unknown
7:15 PM 45.1 °F - 39.2 °F 80% 30.40 in 10.0 mi Calm Calm - N/A   Unknown
7:35 PM 45.1 °F 43.7 °F 40.1 °F 82% 30.41 in 10.0 mi North 3.5 mph - N/A   Unknown
7:55 PM 45.7 °F 44.4 °F 37.6 °F 73% 30.41 in 10.0 mi NNW 3.5 mph - N/A   Unknown
8:15 PM 45.0 °F 43.5 °F 35.4 °F 69% 30.41 in 10.0 mi NNE 3.5 mph - N/A   Unknown
8:35 PM 45.0 °F 42.6 °F 36.7 °F 73% 30.42 in 10.0 mi North 4.6 mph - N/A   Unknown
9:15 PM 43.9 °F 42.3 °F 36.1 °F 74% 30.41 in 10.0 mi NNE 3.5 mph - N/A   Unknown
9:35 PM 43.9 °F - 34.7 °F 70% 30.41 in 10.0 mi Calm Calm - N/A   Unknown
9:55 PM 44.1 °F 42.5 °F 32.5 °F 64% 30.40 in 10.0 mi NNE 3.5 mph - N/A   Unknown
10:15 PM 41.4 °F - 34.3 °F 76% 30.39 in 10.0 mi Calm Calm - N/A   Unknown
10:35 PM 41.2 °F - 34.7 °F 78% 30.40 in 10.0 mi Calm Calm - N/A   Unknown
10:55 PM 39.2 °F - 35.2 °F 86% 30.39 in 10.0 mi Calm Calm - N/A   Unknown
11:15 PM 38.3 °F 35.9 °F 38.3 °F 100% 30.38 in 10.0 mi North 3.5 mph - N/A   Unknown
11:35 PM 40.1 °F 38.0 °F 32.9 °F 75% 30.38 in 10.0 mi North 3.5 mph - N/A   Unknown
11:55 PM 39.7 °F 37.6 °F 32.2 °F 74% 30.38 in 10.0 mi NNE 3.5 mph - N/A   Unknown